TimeMDT,TemperatureF,Dew PointF,Humidity,Sea Level PressureIn,VisibilityMPH,Wind Direction,Wind SpeedMPH,Gust SpeedMPH,PrecipitationIn,Events,Conditions,WindDirDegrees,DateUTC
12:53 AM,45.0,15.1,30,29.88,10.0,North,6.9,19.6,N/A,,Overcast,10,2013-09-30 06:53:00
1:53 AM,43.0,16.0,34,29.89,10.0,NNE,11.5,-,N/A,,Clear,30,2013-09-30 07:53:00
2:53 AM,44.1,16.0,32,29.87,10.0,North,9.2,17.3,N/A,,Clear,360,2013-09-30 08:53:00
3:53 AM,42.1,17.1,37,29.86,10.0,North,8.1,-,N/A,,Clear,10,2013-09-30 09:53:00
4:53 AM,39.9,17.1,40,29.87,10.0,NE,5.8,-,N/A,,Clear,50,2013-09-30 10:53:00
5:53 AM,39.0,18.0,43,29.89,10.0,Variable,3.5,-,N/A,,Clear,0,2013-09-30 11:53:00
6:53 AM,42.1,18.0,38,29.91,10.0,North,15.0,20.7,N/A,,Clear,10,2013-09-30 12:53:00
7:53 AM,41.0,19.9,43,29.94,10.0,NNE,9.2,-,N/A,,Clear,20,2013-09-30 13:53:00
8:53 AM,45.0,24.1,44,29.89,10.0,Calm,Calm,-,N/A,,Clear,0,2013-09-30 14:53:00
9:53 AM,50.0,24.1,36,29.86,10.0,Variable,3.5,-,N/A,,Clear,0,2013-09-30 15:53:00
10:53 AM,59.0,28.0,31,29.81,10.0,NW,9.2,-,N/A,,Clear,320,2013-09-30 16:53:00
11:53 AM,60.1,28.0,30,29.76,10.0,NNW,12.7,21.9,N/A,,Clear,330,2013-09-30 17:53:00
12:53 PM,60.1,26.1,27,29.75,10.0,NW,16.1,23.0,N/A,,Clear,320,2013-09-30 18:53:00
1:53 PM,61.0,25.0,25,29.75,10.0,NW,13.8,23.0,N/A,,Clear,320,2013-09-30 19:53:00
2:53 PM,62.1,25.0,24,29.73,10.0,NNW,11.5,20.7,N/A,,Clear,330,2013-09-30 20:53:00
3:53 PM,62.1,26.1,25,29.74,10.0,NNW,17.3,23.0,N/A,,Clear,330,2013-09-30 21:53:00
4:53 PM,61.0,24.1,24,29.76,10.0,WNW,17.3,21.9,N/A,,Clear,290,2013-09-30 22:53:00
5:53 PM,57.9,19.0,22,29.79,10.0,NW,12.7,-,N/A,,Clear,310,2013-09-30 23:53:00
6:53 PM,52.0,21.9,31,29.82,10.0,NW,6.9,-,N/A,,Clear,310,2013-10-01 00:53:00
7:53 PM,46.9,24.1,41,29.87,10.0,NNE,5.8,-,N/A,,Clear,20,2013-10-01 01:53:00
8:53 PM,46.0,24.1,42,29.86,10.0,North,8.1,-,N/A,,Clear,10,2013-10-01 02:53:00
9:53 PM,43.0,24.1,47,29.87,10.0,NNE,8.1,-,N/A,,Clear,20,2013-10-01 03:53:00
10:53 PM,42.1,24.1,49,29.83,10.0,NE,6.9,-,N/A,,Clear,40,2013-10-01 04:53:00
11:53 PM,37.9,24.1,57,29.85,10.0,ENE,5.8,-,N/A,,Clear,60,2013-10-01 05:53:00